User: anonymous   Login
Location: Unspecified
(0.0000°N, 0.0000°E)
Time: 10:37:05
(UTC+00:00)
Language:

Tandem-X - Orbit

View from above orbital plane
View from above orbital plane
View from above satellite
View from above satellite

Ground track
Ground track

The orbit data is extracted from the following two-line orbital elements,

1 36605U 10030A   24150.53294514  .00001439  00000-0  71683-4 0  9995
2 36605  97.4452 157.9480 0001728  90.8100 269.3333 15.19151524772989
Epoch (UTC): 29 May 2024 12:47:26
Eccentricity: 0.0001728
inclination: 97.4452°
perigee height: 507 km
apogee height: 509 km
right ascension of ascending node: 157.9480°
argument of perigee: 90.8100°
revolutions per day: 15.19151524
mean anomaly at epoch: 269.3333°
orbit number at epoch: 77298

The dashed part of the orbit path shows where the satellite is in the earth's shadow,  

DLR